Zurück zum Katalog

FENGYUN 1C DEB

AktivSSO
NORAD 31172·DEBRIS·🇨🇳 China

Gestartet May 10, 1999 von Taiyuan Satellite Launch Center

Loading…

Nächste Überflüge (nächste 24 Stunden)

TLE

AktuellSource: Space-Track

Epoche: Sep 14, 2026, 10:45 UTC

1 31172U 99025BJA 26257.44807594  .00000131  00000-0  58377-4 0  9991
2 31172  98.4303 258.9995 0148938 171.5007 188.8753 14.31724150 15637

Verfolge FENGYUN 1C DEB in Echtzeit mit AllMySat

Download on the App Store